| time (UTC) | temp F | wind direction | speed MPH | gust MPH | rain 1hr in | rain 24hr in | rain mn in | humidity % | barometer mb |
| 20260905180604 | 75 | 355 | 0.0 | 0.0 | 0.00 | 0.00 | 0.00 | 69 | 1010.5 |
| 20260905175625 | 75 | 355 | 0.0 | 0.0 | 0.00 | 0.00 | 0.00 | 68 | 1010.6 |
| 20260905174625 | 76 | 355 | 0.0 | 1.0 | 0.00 | 0.00 | 0.00 | 67 | 1010.7 |
| 20260905173603 | 76 | 354 | 0.0 | 5.0 | 0.00 | 0.00 | 0.00 | 67 | 1010.5 |
| 20260905172625 | 76 | 328 | 1.0 | 5.0 | 0.00 | 0.00 | 0.00 | 67 | 1010.8 |
| 20260905171604 | 75 | 332 | 0.0 | 3.0 | 0.00 | 0.00 | 0.00 | 71 | 1010.9 |
| 20260905170604 | 76 | 333 | 0.0 | 4.0 | 0.00 | 0.00 | 0.00 | 69 | 1011.0 |
| 20260905165603 | 75 | 348 | 0.0 | 3.0 | 0.00 | 0.00 | 0.00 | 68 | 1010.9 |
| 20260905164604 | 74 | 344 | 1.0 | 5.0 | 0.00 | 0.00 | 0.00 | 75 | 1011.1 |
| 20260905163604 | 75 | 346 | 1.0 | 5.0 | 0.00 | 0.00 | 0.00 | 71 | 1011.0 |
| 20260905162646 | 75 | 348 | 0.0 | 4.0 | 0.00 | 0.00 | 0.00 | 74 | 1011.1 |
| 20260905161604 | 75 | 349 | 1.0 | 4.0 | 0.00 | 0.00 | 0.00 | 69 | 1011.0 |
| 20260905160604 | 74 | 5 | 0.0 | 4.0 | 0.00 | 0.00 | 0.00 | 71 | 1010.9 |
| 20260905155604 | 74 | 346 | 0.0 | 3.0 | 0.00 | 0.00 | 0.00 | 70 | 1010.9 |
| 20260905154604 | 74 | 345 | 0.0 | 3.0 | 0.00 | 0.00 | 0.00 | 71 | 1011.0 |
| 20260905153603 | 73 | 345 | 1.0 | 4.0 | 0.00 | 0.00 | 0.00 | 70 | 1010.9 |
| 20260905152604 | 73 | 345 | 1.0 | 6.0 | 0.00 | 0.00 | 0.00 | 71 | 1011.1 |
| 20260905151603 | 74 | 5 | 0.0 | 3.0 | 0.00 | 0.00 | 0.00 | 73 | 1011.0 |
| 20260905150604 | 73 | 5 | 0.0 | 4.0 | 0.00 | 0.00 | 0.00 | 74 | 1011.0 |
| 20260905145603 | 74 | 356 | 1.0 | 5.0 | 0.00 | 0.00 | 0.00 | 75 | 1011.0 |
| 20260905144604 | 73 | 327 | 2.0 | 6.0 | 0.00 | 0.00 | 0.00 | 73 | 1011.0 |
| 20260905143624 | 73 | 318 | 1.0 | 5.0 | 0.00 | 0.00 | 0.00 | 74 | 1011.1 |
| 20260905142604 | 73 | 313 | 1.0 | 9.0 | 0.00 | 0.00 | 0.00 | 74 | 1011.0 |
| 20260905141625 | 73 | 341 | 1.0 | 9.0 | 0.00 | 0.00 | 0.00 | 76 | 1010.9 |
| 20260905140604 | 72 | 271 | 1.0 | 4.0 | 0.00 | 0.00 | 0.00 | 75 | 1010.9 |
| 20260905135625 | 73 | 46 | 1.0 | 7.0 | 0.00 | 0.00 | 0.00 | 75 | 1010.9 |
| 20260905134625 | 72 | 327 | 0.0 | 7.0 | 0.00 | 0.00 | 0.00 | 79 | 1010.8 |
| 20260905133625 | 71 | 339 | 2.0 | 8.0 | 0.00 | 0.00 | 0.00 | 79 | 1010.9 |
| 20260905132604 | 70 | 317 | 0.0 | 9.0 | 0.00 | 0.00 | 0.00 | 80 | 1010.8 |
| 20260905131604 | 70 | 333 | 0.0 | 2.0 | 0.00 | 0.00 | 0.00 | 81 | 1010.9 |
| 20260905125625 | 69 | 23 | 0.0 | 7.0 | 0.00 | 0.00 | 0.00 | 82 | 1011.0 |
| 20260905124603 | 68 | 338 | 0.0 | 3.0 | 0.00 | 0.00 | 0.00 | 84 | 1011.1 |
| 20260905123625 | 67 | 339 | 1.0 | 4.0 | 0.00 | 0.00 | 0.00 | 86 | 1011.4 |
| 20260905122603 | 67 | 317 | 0.0 | 4.0 | 0.00 | 0.00 | 0.00 | 86 | 1011.4 |
| 20260905121604 | 67 | 319 | 0.0 | 4.0 | 0.00 | 0.00 | 0.00 | 88 | 1011.2 |
| 20260905120603 | 66 | 302 | 1.0 | 6.0 | 0.00 | 0.00 | 0.00 | 87 | 1011.3 |
| 20260905115603 | 66 | 350 | 0.0 | 2.0 | 0.00 | 0.00 | 0.00 | 87 | 1011.3 |
| 20260905114604 | 65 | 348 | 0.0 | 3.0 | 0.00 | 0.00 | 0.00 | 88 | 1011.3 |
| 20260905113603 | 65 | 338 | 0.0 | 2.0 | 0.00 | 0.00 | 0.00 | 88 | 1011.2 |
| 20260905112604 | 64 | 340 | 0.0 | 0.0 | 0.00 | 0.00 | 0.00 | 89 | 1011.0 |
| 20260905111604 | 64 | 340 | 0.0 | 0.0 | 0.00 | 0.00 | 0.00 | 89 | 1011.0 |
| 20260905110604 | 64 | 340 | 0.0 | 0.0 | 0.00 | 0.00 | 0.00 | 89 | 1010.6 |
| 20260905105624 | 64 | 340 | 0.0 | 0.0 | 0.00 | 0.00 | 0.00 | 88 | 1010.5 |
| 20260905104604 | 64 | 340 | 0.0 | 0.0 | 0.00 | 0.00 | 0.00 | 87 | 1010.4 |
| 20260905103603 | 65 | 340 | 0.0 | 0.0 | 0.00 | 0.00 | 0.00 | 88 | 1010.3 |
| 20260905102624 | 65 | 340 | 0.0 | 0.0 | 0.00 | 0.00 | 0.00 | 86 | 1010.2 |
| 20260905101604 | 65 | 340 | 0.0 | 0.0 | 0.00 | 0.00 | 0.00 | 85 | 1010.1 |
| 20260905100603 | 66 | 340 | 0.0 | 0.0 | 0.00 | 0.00 | 0.00 | 84 | 1010.1 |
| 20260905095604 | 66 | 340 | 0.0 | 3.0 | 0.00 | 0.00 | 0.00 | 83 | 1010.1 |
| 20260905093603 | 67 | 333 | 0.0 | 0.0 | 0.00 | 0.00 | 0.00 | 82 | 1009.9 |
| 20260905092646 | 67 | 333 | 0.0 | 2.0 | 0.00 | 0.00 | 0.00 | 82 | 1009.9 |
| 20260905091604 | 67 | 333 | 0.0 | 4.0 | 0.00 | 0.00 | 0.00 | 81 | 1009.9 |
| 20260905090603 | 68 | 329 | 0.0 | 0.0 | 0.00 | 0.00 | 0.00 | 81 | 1009.9 |
| 20260905085603 | 68 | 329 | 0.0 | 1.0 | 0.00 | 0.00 | 0.00 | 80 | 1010.0 |
| 20260905084604 | 68 | 329 | 0.0 | 3.0 | 0.00 | 0.00 | 0.00 | 80 | 1009.9 |
| 20260905083603 | 68 | 325 | 1.0 | 5.0 | 0.00 | 0.00 | 0.00 | 79 | 1009.9 |
| 20260905082603 | 69 | 338 | 0.0 | 5.0 | 0.00 | 0.00 | 0.00 | 79 | 1009.9 |
| 20260905081603 | 69 | 336 | 0.0 | 2.0 | 0.00 | 0.00 | 0.00 | 78 | 1009.9 |
| 20260905080603 | 69 | 335 | 1.0 | 4.0 | 0.00 | 0.00 | 0.00 | 78 | 1009.9 |
| 20260905075603 | 70 | 342 | 0.0 | 5.0 | 0.00 | 0.00 | 0.00 | 78 | 1010.0 |
| 20260905074604 | 70 | 5 | 0.0 | 0.0 | 0.00 | 0.00 | 0.00 | 77 | 1009.9 |
| 20260905073603 | 70 | 5 | 0.0 | 1.0 | 0.00 | 0.00 | 0.00 | 76 | 1010.2 |
| 20260905072604 | 70 | 5 | 0.0 | 0.0 | 0.00 | 0.00 | 0.00 | 76 | 1010.1 |
| 20260905071603 | 70 | 5 | 0.0 | 8.0 | 0.00 | 0.00 | 0.00 | 75 | 1009.9 |
| 20260905070604 | 70 | 350 | 0.0 | 2.0 | 0.00 | 0.00 | 0.00 | 75 | 1010.0 |
| 20260905065604 | 71 | 347 | 0.0 | 3.0 | 0.00 | 0.00 | 0.00 | 75 | 1010.0 |
| 20260905064625 | 71 | 347 | 0.0 | 4.0 | 0.00 | 0.00 | 0.00 | 74 | 1010.0 |
| 20260905063603 | 71 | 339 | 0.0 | 4.0 | 0.00 | 0.00 | 0.00 | 75 | 1010.1 |
| 20260905062604 | 71 | 344 | 1.0 | 5.0 | 0.00 | 0.00 | 0.00 | 74 | 1010.2 |
| 20260905061625 | 71 | 354 | 0.0 | 8.0 | 0.00 | 0.01 | 0.00 | 75 | 1010.1 |
| 20260905060603 | 71 | 354 | 1.0 | 5.0 | 0.00 | 0.01 | 0.00 | 76 | 1010.4 |
| 20260905055604 | 71 | 347 | 0.0 | 3.0 | 0.00 | 0.01 | 0.00 | 76 | 1010.4 |
| 20260905054605 | 71 | 345 | 0.0 | 3.0 | 0.00 | 0.01 | 0.00 | 76 | 1010.5 |
| 20260905053603 | 71 | 339 | 0.0 | 10.0 | 0.00 | 0.01 | 0.00 | 76 | 1010.5 |
| 20260905052604 | 71 | 349 | 0.0 | 3.0 | 0.00 | 0.01 | 0.00 | 79 | 1010.7 |
| 20260905051604 | 70 | 345 | 0.0 | 2.0 | 0.00 | 0.01 | 0.00 | 80 | 1010.9 |
| 20260905050603 | 70 | 347 | 0.0 | 0.0 | 0.00 | 0.01 | 0.00 | 81 | 1010.8 |
| 20260905045603 | 71 | 346 | 0.0 | 0.0 | 0.00 | 0.01 | 0.00 | 81 | 1011.0 |
| 20260905044603 | 71 | 347 | 0.0 | 1.0 | 0.00 | 0.01 | 0.00 | 81 | 1011.0 |
| 20260905043625 | 71 | 347 | 0.0 | 1.0 | 0.00 | 0.01 | 0.00 | 81 | 1011.0 |
| 20260905042603 | 72 | 346 | 0.0 | 0.0 | 0.00 | 0.01 | 0.00 | 81 | 1011.3 |
| 20260905041604 | 72 | 346 | 0.0 | 0.0 | 0.00 | 0.01 | 0.00 | 79 | 1011.2 |
| 20260905040603 | 72 | 346 | 0.0 | 0.0 | 0.00 | 0.01 | 0.00 | 77 | 1011.1 |
| 20260905035603 | 73 | 346 | 0.0 | 3.0 | 0.00 | 0.01 | 0.01 | 77 | 1011.1 |
| 20260905034603 | 73 | 342 | 0.0 | 3.0 | 0.00 | 0.01 | 0.01 | 76 | 1011.1 |
| 20260905033603 | 73 | 342 | 0.0 | 5.0 | 0.00 | 0.01 | 0.01 | 76 | 1011.0 |
| 20260905032603 | 73 | 345 | 0.0 | 5.0 | 0.00 | 0.01 | 0.01 | 77 | 1011.1 |
| 20260905031604 | 72 | 335 | 1.0 | 5.0 | 0.00 | 0.01 | 0.01 | 77 | 1011.1 |
| 20260905030603 | 72 | 340 | 0.0 | 4.0 | 0.00 | 0.01 | 0.01 | 79 | 1010.9 |
| 20260905025603 | 71 | 342 | 0.0 | 4.0 | 0.00 | 0.01 | 0.01 | 81 | 1010.9 |
| 20260905024624 | 69 | 354 | 0.0 | 5.0 | 0.00 | 0.01 | 0.01 | 85 | 1010.9 |
| 20260905023604 | 68 | 18 | 0.0 | 0.0 | 0.00 | 0.01 | 0.01 | 93 | 1010.9 |
| 20260905022624 | 68 | 18 | 0.0 | 1.0 | 0.00 | 0.01 | 0.01 | 94 | 1011.3 |
| 20260905021603 | 67 | 18 | 0.0 | 0.0 | 0.00 | 0.01 | 0.01 | 94 | 1011.0 |
| 20260905020603 | 67 | 18 | 0.0 | 0.0 | 0.00 | 0.01 | 0.01 | 94 | 1011.0 |
| 20260905015603 | 67 | 18 | 0.0 | 0.0 | 0.00 | 0.01 | 0.01 | 94 | 1011.3 |
| 20260905014603 | 67 | 18 | 0.0 | 0.0 | 0.00 | 0.01 | 0.01 | 93 | 1011.3 |
| 20260905013603 | 67 | 18 | 0.0 | 0.0 | 0.00 | 0.01 | 0.01 | 93 | 1011.3 |
| 20260905012603 | 68 | 18 | 0.0 | 0.0 | 0.00 | 0.01 | 0.01 | 93 | 1011.3 |
| 20260905011624 | 68 | 18 | 0.0 | 0.0 | 0.00 | 0.01 | 0.01 | 92 | 1011.2 |
| 20260905010603 | 68 | 18 | 0.0 | 0.0 | 0.00 | 0.01 | 0.01 | 92 | 1011.1 |
| 20260905005603 | 69 | 18 | 0.0 | 0.0 | 0.00 | 0.01 | 0.01 | 91 | 1011.1 |
| 20260905004604 | 69 | 18 | 0.0 | 0.0 | 0.00 | 0.01 | 0.01 | 90 | 1011.3 |
| 20260905003625 | 69 | 18 | 0.0 | 0.0 | 0.00 | 0.01 | 0.01 | 90 | 1010.9 |
| 20260905002604 | 69 | 18 | 0.0 | 0.0 | 0.00 | 0.01 | 0.01 | 89 | 1010.9 |
| 20260905001603 | 70 | 18 | 0.0 | 0.0 | 0.00 | 0.01 | 0.01 | 89 | 1011.0 |
| 20260905000603 | 70 | 18 | 0.0 | 0.0 | 0.00 | 0.01 | 0.01 | 88 | 1010.8 |
| 20260904235603 | 71 | 18 | 0.0 | 0.0 | 0.00 | 0.01 | 0.01 | 87 | 1010.8 |
| 20260904233603 | 73 | 18 | 0.0 | 0.0 | 0.00 | 0.01 | 0.01 | 84 | 1010.8 |
| 20260904232624 | 73 | 18 | 0.0 | 0.0 | 0.00 | 0.01 | 0.01 | 83 | 1010.6 |
| 20260904231624 | 74 | 18 | 0.0 | 0.0 | 0.00 | 0.01 | 0.01 | 83 | 1010.6 |
| 20260904230603 | 75 | 18 | 0.0 | 0.0 | 0.00 | 0.01 | 0.01 | 82 | 1010.5 |
| 20260904225603 | 76 | 18 | 0.0 | 0.0 | 0.00 | 0.01 | 0.01 | 81 | 1010.7 |
| 20260904224603 | 77 | 18 | 0.0 | 0.0 | 0.00 | 0.01 | 0.01 | 78 | 1010.8 |
| 20260904223603 | 77 | 18 | 0.0 | 0.0 | 0.00 | 0.01 | 0.01 | 76 | 1010.8 |
| 20260904222604 | 78 | 18 | 0.0 | 0.0 | 0.00 | 0.01 | 0.01 | 72 | 1010.7 |
| 20260904221603 | 78 | 18 | 0.0 | 0.0 | 0.00 | 0.01 | 0.01 | 73 | 1010.9 |
| 20260904220603 | 79 | 18 | 0.0 | 0.0 | 0.00 | 0.01 | 0.01 | 72 | 1010.6 |
| 20260904215604 | 79 | 18 | 0.0 | 0.0 | 0.00 | 0.01 | 0.01 | 68 | 1010.6 |
| 20260904214603 | 80 | 18 | 0.0 | 2.0 | 0.00 | 0.01 | 0.01 | 66 | 1010.6 |
| 20260904213604 | 80 | 18 | 0.0 | 2.0 | 0.00 | 0.01 | 0.01 | 65 | 1010.5 |
| 20260904212603 | 80 | 19 | 0.0 | 2.0 | 0.00 | 0.01 | 0.01 | 67 | 1010.5 |
| 20260904211603 | 80 | 26 | 0.0 | 8.0 | 0.00 | 0.01 | 0.01 | 65 | 1010.5 |
| 20260904210603 | 80 | 246 | 0.0 | 4.0 | 0.00 | 0.01 | 0.01 | 68 | 1010.4 |
| 20260904205603 | 80 | 250 | 1.0 | 4.0 | 0.00 | 0.01 | 0.01 | 69 | 1010.4 |
| 20260904204625 | 80 | 286 | 0.0 | 5.0 | 0.00 | 0.01 | 0.01 | 66 | 1010.5 |
| 20260904203603 | 80 | 308 | 0.0 | 5.0 | 0.00 | 0.01 | 0.01 | 69 | 1010.7 |
| 20260904202603 | 80 | 283 | 1.0 | 2.0 | 0.00 | 0.01 | 0.01 | 65 | 1010.8 |
| 20260904201625 | 80 | 286 | 0.0 | 2.0 | 0.00 | 0.01 | 0.01 | 67 | 1011.0 |
| 20260904200624 | 81 | 282 | 0.0 | 9.0 | 0.00 | 0.01 | 0.01 | 66 | 1011.0 |
| 20260904195603 | 81 | 289 | 0.0 | 4.0 | 0.00 | 0.01 | 0.01 | 67 | 1010.9 |
| 20260904194602 | 81 | 289 | 0.0 | 11.0 | 0.00 | 0.01 | 0.01 | 65 | 1010.7 |
| 20260904193603 | 81 | 253 | 0.0 | 6.0 | 0.00 | 0.01 | 0.01 | 68 | 1011.0 |
| 20260904192645 | 81 | 322 | 0.0 | 3.0 | 0.00 | 0.01 | 0.01 | 66 | 1011.1 |
| 20260904191603 | 81 | 322 | 1.0 | 6.0 | 0.00 | 0.02 | 0.01 | 66 | 1011.2 |
| 20260904190603 | 80 | 141 | 0.0 | 4.0 | 0.00 | 0.02 | 0.01 | 65 | 1011.2 |
| 20260904185603 | 81 | 98 | 0.0 | 9.0 | 0.00 | 0.02 | 0.01 | 68 | 1011.3 |
| 20260904184603 | 81 | 277 | 1.0 | 8.0 | 0.00 | 0.02 | 0.01 | 67 | 1011.3 |
| 20260904183603 | 80 | 330 | 1.0 | 4.0 | 0.00 | 0.02 | 0.01 | 68 | 1011.6 |
| 20260904182603 | 81 | 328 | 1.0 | 4.0 | 0.00 | 0.02 | 0.01 | 67 | 1011.4 |
| 20260904181603 | 81 | 324 | 1.0 | 12.0 | 0.00 | 0.02 | 0.01 | 65 | 1011.5 |